map of ZCO home
ZCO - Airport
Location
City:  Temuco, Araucanía, Chile
Near (Alt.):Freire
Name:La Araucanía Airport
ICAO:SCQP
IATA:ZCO

Details
Type:Airport (Aerodrome, Airfield)
Latitude:38°55'33"S (-38.925832)
Longitude:72°39'05"W (-72.651388)
Elevation:321 ft (98 m)
Variation:6.44°E (WMM2015v2 magnetic declination)
-0.14° annual change
Runways:1
Longest:8005 × 148 ft (2440 × 45 m), paved

Weather
METAR:SCQP 041400Z VRB02KT CAVOK 22/15 Q1010
TAF:SCQP 041010Z 0412/0512 VRB03KT CAVOK TX33/0420Z TN10/0510Z
BECMG 0413/0415 23010KT CAVOK
BECMG 0501/0503 VRB04KT
BECMG 0507/0509 9999 BKN010
TEMPO 0508/0512 0800 FG OVC002

Related Locations
Nearby:
Farthest:INC: 12370 mi / 19908 km
Yinchuan [Hedong], 64, CN

Find:

   beyond  
but within

Other Information
Maps:
NOTAMs:
Links:
Sources:

  
  • flag of Chile
  • flag of Araucanía
  

Sectional Chart

Flight Planning
at skyvector.com

Satellite Image

Google Maps Satellite view

 

Copyright © 2004-2019 Karl L. Swartz. All rights reserved.
The Great Circle Mapper name and logo are trademarks of the Great Circle Mapper.
All other trademarks mentioned herein belong to their respective owners.
Please see credits for attibutions and further copyright information.

  Follow gcmap on Facebook Follow gcmap on Twitter GCmap on LinkedIn

hCard Microformat

Geo Microformat